• In Italy
  • List of Countries
  • For 7 days
  • Water Temperature
  • Satellite Maps
  • Weather Map
  • Weather Widgets
  • user-avatar
    Login

    Hourly Weather Bolshoy Lombenur

    Today, 18 June, Monday

    Time Temperature Precipitation Wind Pressure Humidity
    00:00 +13°C° 0 mm 1 mps 752 mmHg 74%
    01:00 +13°C° 0 mm 1 mps 752 mmHg 75%
    02:00 +12°C° 0 mm 1 mps 752 mmHg 75%
    03:00 +12°C° 0 mm 1 mps 752 mmHg 80%
    04:00 +13°C° 0 mm 1 mps 752 mmHg 77%
    05:00 +15°C° 0 mm 1 mps 752 mmHg 73%
    06:00 +16°C° 0 mm 1 mps 752 mmHg 70%
    07:00 +18°C° 0 mm 2 mps 752 mmHg 64%
    08:00 +20°C° 0 mm 2 mps 752 mmHg 58%
    09:00 +24°C° 0 mm 2 mps 752 mmHg 52%
    10:00 +25°C° 0 mm 3 mps 751 mmHg 46%
    11:00 +26°C° 0 mm 3 mps 751 mmHg 41%
    12:00 +27°C° 0 mm 3 mps 751 mmHg 36%
    13:00 +27°C° 0 mm 3 mps 751 mmHg 36%
    14:00 +27°C° 0 mm 3 mps 751 mmHg 37%
    15:00 +28°C° 0 mm 2 mps 751 mmHg 37%
    16:00 +27°C° 0 mm 2 mps 751 mmHg 44%
    17:00 +26°C° 0 mm 2 mps 751 mmHg 51%
    18:00 +25°C° 0 mm 2 mps 750 mmHg 58%
    19:00 +23°C° 0 mm 2 mps 750 mmHg 63%
    20:00 +20°C° 0 mm 2 mps 750 mmHg 69%
    21:00 +19°C° 0 mm 2 mps 750 mmHg 74%
    22:00 +19°C° 0 mm 1 mps 750 mmHg 73%
    23:00 +19°C° 0 mm 1 mps 750 mmHg 73%

    Tomorrow, 19 June, Tuesday

    Time Temperature Precipitation Wind Pressure Humidity
    00:00 +19°C° 0 mm 1 mps 750 mmHg 73%
    01:00 +19°C° 0 mm 1 mps 750 mmHg 73%
    02:00 +19°C° 0 mm 1 mps 750 mmHg 72%
    03:00 +19°C° 0 mm 1 mps 750 mmHg 71%
    04:00 +19°C° 0 mm 1 mps 750 mmHg 72%
    05:00 +19°C° 0 mm 1 mps 750 mmHg 74%
    06:00 +19°C° 0 mm 1 mps 750 mmHg 75%
    07:00 +20°C° 0 mm 1 mps 750 mmHg 73%
    08:00 +21°C° 0 mm 1 mps 750 mmHg 71%
    09:00 +22°C° 0 mm 1 mps 750 mmHg 69%
    10:00 +24°C° 0 mm 1 mps 750 mmHg 61%
    11:00 +25°C° 0 mm 1 mps 750 mmHg 53%
    12:00 +27°C° 0 mm 1 mps 749 mmHg 44%
    13:00 +27°C° 0 mm 2 mps 749 mmHg 46%
    14:00 +27°C° 0 mm 2 mps 749 mmHg 48%
    15:00 +27°C° 0 mm 2 mps 749 mmHg 50%
    16:00 +26°C° 0 mm 2 mps 748 mmHg 54%
    17:00 +26°C° 0 mm 2 mps 748 mmHg 58%
    18:00 +26°C° 0 mm 1 mps 748 mmHg 61%
    19:00 +24°C° 0 mm 2 mps 747 mmHg 66%
    20:00 +21°C° 0 mm 2 mps 747 mmHg 72%
    21:00 +20°C° 0 mm 2 mps 747 mmHg 77%
    22:00 +19°C° 0.6 mm 2 mps 747 mmHg 82%
    23:00 +18°C° 0.6 mm 2 mps 747 mmHg 88%

    Day after tomorrow, 20 June, Wednesday

    Time Temperature Precipitation Wind Pressure Humidity
    00:00 +17°C° 0.6 mm 2 mps 746 mmHg 94%
    01:00 +17°C° 0.3 mm 3 mps 746 mmHg 94%
    02:00 +17°C° 0.3 mm 3 mps 746 mmHg 95%
    03:00 +16°C° 0.3 mm 3 mps 745 mmHg 96%
    04:00 +17°C° 0.3 mm 3 mps 745 mmHg 94%
    05:00 +18°C° 0.3 mm 3 mps 745 mmHg 93%
    06:00 +18°C° 0.3 mm 4 mps 745 mmHg 92%
    07:00 +19°C° 0.4 mm 4 mps 744 mmHg 86%
    08:00 +20°C° 0.4 mm 5 mps 744 mmHg 80%
    09:00 +21°C° 0.4 mm 5 mps 744 mmHg 74%
    10:00 +21°C° 0.3 mm 6 mps 744 mmHg 71%
    11:00 +21°C° 0.3 mm 6 mps 744 mmHg 68%
    12:00 +21°C° 0.3 mm 7 mps 744 mmHg 65%
    13:00 +22°C° 0 mm 7 mps 744 mmHg 59%
    14:00 +23°C° 0 mm 6 mps 744 mmHg 52%
    15:00 +24°C° 0 mm 6 mps 745 mmHg 46%
    16:00 +23°C° 0 mm 5 mps 745 mmHg 48%
    17:00 +22°C° 0 mm 5 mps 745 mmHg 50%
    18:00 +21°C° 0 mm 4 mps 745 mmHg 52%
    19:00 +20°C° 0 mm 4 mps 746 mmHg 54%
    20:00 +19°C° 0 mm 3 mps 746 mmHg 55%
    21:00 +18°C° 0 mm 3 mps 747 mmHg 57%
    22:00 +16°C° 0 mm 3 mps 747 mmHg 60%
    23:00 +14°C° 0 mm 3 mps 747 mmHg 64%

    21 June, Thursday

    Time Temperature Precipitation Wind Pressure Humidity
    00:00 +13°C° 0 mm 3 mps 748 mmHg 68%
    01:00 +12°C° 0 mm 3 mps 748 mmHg 70%
    02:00 +12°C° 0 mm 3 mps 748 mmHg 72%
    03:00 +12°C° 0 mm 3 mps 748 mmHg 74%
    04:00 +13°C° 0 mm 3 mps 748 mmHg 73%
    05:00 +14°C° 0 mm 3 mps 748 mmHg 72%
    06:00 +16°C° 0 mm 3 mps 749 mmHg 71%
    07:00 +17°C° 0 mm 3 mps 748 mmHg 65%
    08:00 +19°C° 0 mm 4 mps 748 mmHg 59%
    09:00 +21°C° 0 mm 4 mps 748 mmHg 53%
    10:00 +21°C° 0 mm 4 mps 748 mmHg 53%
    11:00 +21°C° 0 mm 3 mps 748 mmHg 53%
    12:00 +21°C° 0 mm 3 mps 748 mmHg 53%
    13:00 +22°C° 0 mm 3 mps 748 mmHg 52%
    14:00 +22°C° 0 mm 4 mps 748 mmHg 51%
    15:00 +23°C° 0 mm 4 mps 748 mmHg 49%
    16:00 +22°C° 0 mm 4 mps 748 mmHg 51%
    17:00 +22°C° 0 mm 3 mps 748 mmHg 53%
    18:00 +22°C° 0 mm 3 mps 748 mmHg 56%
    19:00 +20°C° 0 mm 2 mps 748 mmHg 61%
    20:00 +18°C° 0 mm 2 mps 749 mmHg 67%
    21:00 +16°C° 0 mm 2 mps 749 mmHg 73%
    22:00 +15°C° 0 mm 2 mps 750 mmHg 75%
    23:00 +14°C° 0 mm 2 mps 750 mmHg 78%

    22 June, Friday

    Time Temperature Precipitation Wind Pressure Humidity
    00:00 +13°C° 0 mm 2 mps 750 mmHg 81%
    01:00 +13°C° 0 mm 2 mps 750 mmHg 82%
    02:00 +13°C° 0 mm 2 mps 751 mmHg 83%
    03:00 +12°C° 0 mm 1 mps 751 mmHg 84%
    04:00 +14°C° 0 mm 1 mps 751 mmHg 81%
    05:00 +15°C° 0 mm 1 mps 751 mmHg 77%
    06:00 +18°C° 0 mm 1 mps 752 mmHg 73%
    07:00 +19°C° 0 mm 2 mps 752 mmHg 67%
    08:00 +21°C° 0 mm 2 mps 752 mmHg 61%
    09:00 +24°C° 0 mm 2 mps 752 mmHg 55%
    10:00 +25°C° 0 mm 3 mps 752 mmHg 52%
    11:00 +26°C° 0 mm 3 mps 752 mmHg 49%
    12:00 +27°C° 0 mm 3 mps 751 mmHg 47%
    13:00 +28°C° 0 mm 3 mps 751 mmHg 47%
    14:00 +28°C° 0 mm 4 mps 751 mmHg 47%
    15:00 +28°C° 0 mm 4 mps 751 mmHg 47%
    16:00 +28°C° 0 mm 4 mps 750 mmHg 52%
    17:00 +27°C° 0 mm 4 mps 750 mmHg 56%
    18:00 +26°C° 0 mm 3 mps 750 mmHg 60%
    19:00 +25°C° 0 mm 3 mps 750 mmHg 67%
    20:00 +22°C° 0 mm 3 mps 750 mmHg 74%
    21:00 +20°C° 0 mm 3 mps 750 mmHg 81%
    22:00 +19°C° 0 mm 3 mps 750 mmHg 83%
    23:00 +19°C° 0 mm 3 mps 750 mmHg 84%

    23 June, Saturday

    Time Temperature Precipitation Wind Pressure Humidity
    00:00 +18°C° 0 mm 3 mps 750 mmHg 85%
    01:00 +18°C° 0 mm 3 mps 750 mmHg 87%
    02:00 +18°C° 0 mm 3 mps 750 mmHg 88%
    03:00 +17°C° 0 mm 3 mps 750 mmHg 89%
    04:00 +19°C° 0 mm 3 mps 750 mmHg 86%
    05:00 +20°C° 0 mm 3 mps 750 mmHg 83%
    06:00 +21°C° 0 mm 4 mps 750 mmHg 80%
    07:00 +23°C° 0 mm 4 mps 750 mmHg 74%
    08:00 +26°C° 0 mm 5 mps 750 mmHg 67%
    09:00 +28°C° 0 mm 5 mps 750 mmHg 61%
    10:00 +29°C° 0 mm 5 mps 750 mmHg 57%
    11:00 +30°C° 0 mm 5 mps 750 mmHg 53%
    12:00 +32°C° 0 mm 6 mps 750 mmHg 48%
    13:00 +32°C° 0 mm 6 mps 750 mmHg 48%
    14:00 +32°C° 0 mm 5 mps 750 mmHg 48%
    15:00 +33°C° 0 mm 5 mps 749 mmHg 48%
    16:00 +32°C° 0 mm 5 mps 749 mmHg 51%
    17:00 +30°C° 0 mm 4 mps 749 mmHg 55%
    18:00 +30°C° 0 mm 3 mps 749 mmHg 58%
    19:00 +28°C° 0 mm 3 mps 749 mmHg 64%
    20:00 +26°C° 0 mm 3 mps 749 mmHg 69%
    21:00 +25°C° 0 mm 3 mps 749 mmHg 75%
    22:00 +24°C° 0.2 mm 3 mps 749 mmHg 79%
    23:00 +22°C° 0.2 mm 3 mps 749 mmHg 83%
    Show more